Orbital Elements at Epoch 2459200.5 (2020-Dec-17.0) TDB
Reference: JPL 8 (heliocentric ecliptic J2000)
Element | Value | Uncertainty (1-sigma) | Units |
e | .6591373923699416 | 2.2022e-07 | |
a | .6101045613460928 | 4.3431e-08 | au |
q | .2079618317074221 | 1.4872e-07 | au |
i | 1.43623345129462 | 1.2587e-05 | deg |
node | 309.0257337102515 | 3.2198e-05 | deg |
peri | 9.757962340837919 | 3.0688e-05 | deg |
M | 128.9835541383728 | 0.00011249 | deg |
tp | 2459138.135610721503 (2020-Oct-15.63561072) | 4.8802e-05 | TDB |
period | 174.062346864574 0.48 | 1.8586e-05 5.089e-08 | d yr |
n | 2.068224440752207 | 2.2084e-07 | deg/d |
Q | 1.012247290984764 | 7.2058e-08 | au |
|
| | Orbit Determination Parameters
Additional Information
|